{"data":{"norad_id":67187,"intl_designator":"2025-303AA","name":"STARLINK-35880","alt_names":[],"object_type":"PAYLOAD","status":"ACTIVE","operator":null,"country":"US","launch_date":"2025-12-17","launch_site_code":"AFETR","launch_vehicle":null,"mission":null,"orbit_class":"UNKNOWN","rcs_meters":null,"size_class":null,"mass_kg":null,"dimensions":null,"purposes":["comms"],"wikipedia_slug":null,"has_3d_model":false,"image_url":null,"decayed_at":null,"tle_current":{"epoch":"2026-05-24T23:13:39.883008Z","epoch_age_seconds":84776,"freshness":"FRESH","line1":"1 67187U 25303AA  26144.96782272  .00018192  00000+0  66900-3 0  9996","line2":"2 67187  42.9985 239.6956 0001112 304.8436  55.2311 15.27578771 24408","mean_motion":15.27578771,"eccentricity":0.0001112,"inclination_deg":42.9985,"raan_deg":239.6956,"arg_perigee_deg":304.8436,"mean_anomaly_deg":55.2311,"bstar":0.000669,"rev_number":2440,"period_min":94.266824555131,"perigee_km":482.28981180715,"apogee_km":483.81574041335,"semimajor_km":6861.1897761103,"source":"CELESTRAK","updated_at":"2026-05-25T13:38:21.484933Z"}}}